World > North America > United States > South Carolina > Townville

Townville, SC Hourly Weather Conditions

Feedback E-mail the Weather

Quick WX

Townville, SC Weather Maps

°F °C°F °C
Townville Weather Map
UTC Time: 2/8/2023, 17:41
Your Time:

Townville, SC Regional Weather

Expires:202302081800;;014978
ASUS42 KCAE 081710
RWRCAE
REGIONAL WEATHER ROUNDUP
NATIONAL WEATHER SERVICE COLUMBIA SC
1200 PM EST WED FEB 08 2023

NOTE: "FAIR" INDICATES FEW OR NO CLOUDS BELOW 12,000 FEET WITH NO
SIGNIFICANT WEATHER AND/OR OBSTRUCTIONS TO VISIBILITY.

NOT ALL STATIONS ARE QUALITY CONTROLLED BY THE NATIONAL 
WEATHER SERVICE. USE DATA WITH CAUTION...ESPECIALLY 
DEWPOINT OBSERVATIONS.


SCZ001>059-115-116-135>137-GAZ040-063>065-077-081800-
...UPSTATE SOUTH CAROLINA...
  
CITY           SKY/WX    TMP DP  RH WIND       PRES   REMARKS
ANDERSON       PTSUNNY   66  42  41 CALM      30.30F                  
LIBERTY        CLOUDY    59  40  49 CALM      30.30F                  
SPARTANBURG    CLOUDY    61  37  41 CALM      30.31S                  
GREENVILLE     CLOUDY    63  41  44 W3        30.31F                  
GREENWOOD      PTSUNNY   67  49  52 SW8       30.32F                  
GREER          CLOUDY    65  41  41 NW5       30.31F                  
ROCK HILL      CLOUDY    66  41  40 SW5       30.31F                  
CHESTER        PTSUNNY   66  41  39 W5        30.33F                  
LAURENS        PTSUNNY   64  43  45 CALM      30.31F                  


...CENTRAL SOUTH CAROLINA...
  
CITY           SKY/WX    TMP DP  RH WIND       PRES   REMARKS
COLUMBIA APT   PTSUNNY   70  55  59 VRB3      30.31F                  
COLUMBIA OWENS PTSUNNY   67  54  63 VRB3      30.32F                  
MCENTIRE ANGB  MOSUNNY   69  55  62 CALM      30.30F                  
SUMTER SHAW    PTSUNNY   69  53  57 W6        30.31F                  
NEWBERRY       PTSUNNY   64  48  55 W6        30.35F                  
AIKEN          FAIR      70  55  57 SW8       30.31F                  
BARNWELL       FAIR      73  55  53 SW7       30.31F                  
MANNING        FAIR      70  54  56 W6        30.33F                  
CAMDEN         FAIR      68  52  56 CALM      30.33F                  
LANCASTER      PTSUNNY   68  45  42 W5        30.32F                  
WINNSBORO      MOSUNNY   68  54  60 SW5       30.32F                  


...EASTERN AND COASTAL SOUTH CAROLINA...
  
CITY           SKY/WX    TMP DP  RH WIND       PRES   REMARKS
MYRTLE BEACH   PTSUNNY   70  53  54 W8        30.34F                  
N MYRTLE BCH   PTSUNNY   69  52  54 W12       30.32F                  
CONWAY         FAIR      68  54  60 CALM      30.33F                  
MARION         FAIR      66  45  45 W9        30.33F                  
HARTSVILLE     FAIR      68  50  52 VRB6      30.32F                  
FLORENCE       PTSUNNY   69  52  54 W8        30.32F                  
DARLINGTON     MOSUNNY   70  52  52 W7        30.32F                  
CHARLESTON APT PTSUNNY   73  53  49 W6        30.33F                  
MOUNT PLEASANT FAIR      70  52  52 SW3       30.33F                  
WALTERBORO     MOSUNNY   70  54  56 SW5       30.33F                  
BEAUFORT       PTSUNNY   73  54  51 W7        30.33F                  
HILTON HEAD    SUNNY     72  54  53 SW6       30.34F                  


...EASTERN GEORGIA...
  
CITY           SKY/WX    TMP DP  RH WIND       PRES   REMARKS
AUGUSTA BUSH F PTSUNNY   67  53  61 E5        30.30F                  
AUGUSTA DANIEL PTSUNNY   67  54  63 S3        30.31F                  
THOMSON        PTSUNNY   70  54  56 SW3       30.31S                  
CLAXTON        FAIR      74  55  52 SW3       30.31F                  
SYLVANIA       MOSUNNY   71  55  58 SW3       30.33F                  
STATESBORO     MOSUNNY   71  54  53 SW6       30.32F                  
SAVANNAH       CLOUDY    74  51  44 SW5       30.32F                  


...SOUTHERN NORTH CAROLINA...
  
CITY           SKY/WX    TMP DP  RH WIND       PRES   REMARKS
CHARLOTTE      CLOUDY    66  41  40 SW7       30.31F                  
MONROE         PTSUNNY   69  41  36 W9        30.30F                  
WADESBORO      PTSUNNY   68  40  36 SW5       30.31F                  
ROCKINGHAM     MOSUNNY   67  45  44 W7        30.31F                  
RUTHERFORDTON  CLOUDY    57  39  51 CALM      30.32F                  
ASHEVILLE      CLOUDY    50  36  58 CALM      30.33F                  

$$
  

SKY/WX - Weather  TMP - Temperature  DP - Dew Point  RH - Humidity
WIND - Wind Direction/Speed PRES - Barometric Pressure VSB - Visibility
WCI - Wind Chill Index E13G22 Wind - East Wind 13 mph/Gusts of 22 mph

Trending Headlines

Trending Entertainment Headlines

Townville Radar Loop

Use the map search tool if you want to place a location marker on the radar map...

Townville Quick Facts

National Two Day Weather Forecast


E-mail the Townville Weather Forecast

Voice your opinion or tell us about page issues...